sat.trackr.live / text

‹ back to catalog

DONGPO 01

NORAD 53453 · 2022-098K

PAYLOAD ACTIVE UNKNOWN

§ Identity

Operator
Country
PRC
Launch date
2022-08-10
Launch site
TAISC
Launch vehicle
Mass (kg)
RCS (m²)

External: N2YO · Heavens-Above · Gunter

§ Orbital elements

Epoch: 2026-05-25T03:57:42.371136Z

Period
91.82 min
Inclination
97.5553°
Eccentricity
0.0000656
Mean motion
15.68269925 rev/d
Perigee alt
363.4 km
Apogee alt
364.3 km
Semi-major
6,742.0 km
B*
6.4748e-4
RAAN
275.0246°
Arg perigee
176.0060°
Mean anomaly
184.1206°
Rev number
21,114

§ Raw data

DONGPO 011 53453U 22098K   26145.16507374  .00072760  00000+0  64748-3 0  99952 53453  97.5553 275.0246 0000656 176.0060 184.1206 15.68269925211143

JSON: /api/v1/satellites/53453 · /tle

For live sub-satellite position, see the globe view (requires WebGL).

§ Visibility from observer

Set your observer location to see the next 7 days of passes ≥ 10°. The values pass through the URL so the page stays shareable.

No JS? Fill the form by hand. The geolocation button needs JavaScript.

§ Radio — SatNOGS DB

ModeDescriptionDownlinkUplink
FM Jillin Mysterious Pip 1.616 GHz

1 transmitter · refreshed weekly from db.satnogs.org